Two Harbors, MN

1:21 PM CDT on October 21, 2019 (GMT -0500)
Helgeson

Weather History for KTWM - September, 2019

Change the Weather History Date:

Friday, September 20, 2019

  Actual Average Record
Temperature  
Mean Temperature 63 °F -  
Max Temperature 71 °F 63 °F 80 °F (2005)
Min Temperature 55 °F 47 °F 29 °F (1973)
Degree Days  
Heating Degree Days 2    
Growing Degree Days 13 (Base 50)    
Moisture  
Dew Point 54 °F    
Average Humidity 75    
Maximum Humidity 82    
Minimum Humidity 60    
Precipitation  
Precipitation 0.00 in - - ()
Sea Level Pressure  
Sea Level Pressure 30.06 in    
Wind  
Wind Speed 6 mph ()    
Max Wind Speed 14 mph    
Max Gust Speed 17 mph    
Visibility 8.4 miles    
Events      
Averages and records for this station are not official NWS values.
T = Trace of Precipitation, MM = Missing Value Source: Averaged Metar Reports

Daily Weather History Graph

Daily Weather History Graph

Search for Another Location

Airport or City:

Astronomy

Sep. 20, 2019 Rise Set
Actual Time 6:50 AM CDT 7:09 PM CDT
Civil Twilight 6:20 AM CDT 7:39 PM CDT
Nautical Twilight 5:44 AM CDT 8:15 PM CDT
Astronomical Twilight 5:07 AM CDT 8:52 PM CDT
Moon 10:35 PM CDT (9/20) 1:18 PM CDT (9/20)
Length of Visible Light 13h 19m
Length of Day
12h 18m
Waning Gibbous, 65% of the Moon is Illuminated
Sep 20
Waning Gibbous
Sep 21
Last Quarter
Sep 28
New
Oct 5
First Quarter
Oct 13
Full

Hourly Weather History & Observations

Time (CDT) Temp. Dew Point Humidity Pressure Visibility Wind Dir Wind Speed Gust Speed Precip Events Conditions
12:55 AM 59.0 °F 51.8 °F 77% 30.08 in 10.0 mi North 3.5 mph - N/A   Clear
1:55 AM 57.2 °F 51.8 °F 82% 30.09 in 10.0 mi North 3.5 mph - N/A   Clear
2:55 AM 57.2 °F 51.8 °F 82% 30.10 in 10.0 mi North 4.6 mph - N/A   Clear
3:55 AM 59.0 °F 51.8 °F 77% 30.09 in 10.0 mi North 4.6 mph - N/A   Clear
4:55 AM 57.2 °F 51.8 °F 82% 30.09 in 10.0 mi North 3.5 mph - N/A   Clear
5:55 AM 57.2 °F 51.8 °F 82% 30.10 in 10.0 mi NNE 3.5 mph - N/A   Clear
6:55 AM 55.4 °F 50.0 °F 82% 30.10 in 10.0 mi NE 3.5 mph - N/A   Scattered Clouds
7:55 AM 59.0 °F 53.6 °F 82% 30.12 in 1.5 mi ENE 5.8 mph - N/A   Haze
8:55 AM 60.8 °F 53.6 °F 77% 30.11 in 5.0 mi NE 6.9 mph - N/A   Haze
9:55 AM 62.6 °F 53.6 °F 72% 30.09 in 10.0 mi NE 9.2 mph - N/A   Mostly Cloudy
10:19 AM 62.6 °F 55.4 °F 77% 30.09 in 10.0 mi East 8.1 mph - N/A   Overcast
10:40 AM 62.6 °F 55.4 °F 77% 30.09 in 10.0 mi East 11.5 mph - N/A   Overcast
10:55 AM 64.4 °F 55.4 °F 73% 30.08 in 10.0 mi ENE 10.4 mph 17.3 mph N/A   Overcast
11:55 AM 66.2 °F 55.4 °F 68% 30.09 in 10.0 mi ENE 13.8 mph 17.3 mph N/A   Mostly Cloudy
1:05 PM 66.2 °F 55.4 °F 68% 30.08 in 10.0 mi East 9.2 mph - N/A   Overcast
1:20 PM 66.2 °F 55.4 °F 68% 30.08 in 10.0 mi ENE 8.1 mph - N/A   Overcast
1:55 PM 69.8 °F 57.2 °F 64% 30.07 in 10.0 mi ENE 6.9 mph - N/A   Overcast
2:55 PM 71.6 °F 57.2 °F 60% 30.05 in 10.0 mi East 8.1 mph - N/A   Clear
3:55 PM 69.8 °F 57.2 °F 64% 30.03 in 10.0 mi East 12.7 mph - N/A   Clear
4:55 PM 66.2 °F 55.4 °F 68% 30.03 in 10.0 mi East 9.2 mph 13.8 mph N/A   Clear
5:55 PM 62.6 °F 53.6 °F 72% 30.03 in 10.0 mi ENE 12.7 mph 16.1 mph N/A   Mostly Cloudy
6:55 PM 60.8 °F 55.4 °F 82% 30.02 in 0.2 mi NE 10.4 mph - N/A   Haze
7:55 PM 60.8 °F 55.4 °F 82% 30.02 in 5.0 mi ENE 8.1 mph - N/A   Haze
8:55 PM 60.8 °F 53.6 °F 77% 30.01 in 1.0 mi ENE 6.9 mph - N/A   Haze
9:55 PM 60.8 °F 55.4 °F 82% 29.99 in 5.0 mi ENE 6.9 mph - N/A   Haze
10:55 PM 60.8 °F 53.6 °F 77% 29.97 in 10.0 mi ENE 8.1 mph - N/A   Overcast
11:55 PM 59.0 °F 53.6 °F 82% 29.96 in 10.0 mi NE 3.5 mph - N/A   Mostly Cloudy